TimeEST,TemperatureF,Dew PointF,Humidity,Sea Level PressureIn,VisibilityMPH,Wind Direction,Wind SpeedMPH,Gust SpeedMPH,PrecipitationIn,Events,Conditions,WindDirDegrees,DateUTC
12:53 AM,66.9,63.0,87,30.10,10.0,NNW,8.1,-,N/A,,Partly Cloudy,340,2012-11-19 05:53:00
1:53 AM,66.0,62.1,87,30.09,10.0,Variable,4.6,-,N/A,,Clear,0,2012-11-19 06:53:00
2:53 AM,64.9,61.0,87,30.08,10.0,NNW,8.1,-,N/A,,Clear,330,2012-11-19 07:53:00
3:53 AM,64.9,60.1,84,30.09,10.0,NNW,8.1,-,N/A,,Clear,330,2012-11-19 08:53:00
4:53 AM,63.0,60.1,90,30.10,10.0,NNW,6.9,-,N/A,,Clear,340,2012-11-19 09:53:00
5:53 AM,62.1,59.0,90,30.11,10.0,NNW,4.6,-,N/A,,Clear,340,2012-11-19 10:53:00
6:53 AM,61.0,57.9,90,30.11,10.0,NNW,4.6,-,N/A,,Clear,330,2012-11-19 11:53:00
7:53 AM,63.0,57.9,84,30.12,10.0,NNW,6.9,-,N/A,,Clear,340,2012-11-19 12:53:00
8:53 AM,66.0,57.0,73,30.14,10.0,NNW,9.2,-,N/A,,Partly Cloudy,340,2012-11-19 13:53:00
9:53 AM,66.0,57.9,75,30.14,10.0,NW,6.9,-,N/A,,Scattered Clouds,310,2012-11-19 14:53:00
10:53 AM,68.0,57.0,68,30.12,10.0,NNW,9.2,-,N/A,,Clear,330,2012-11-19 15:53:00
11:53 AM,70.0,55.9,61,30.11,10.0,NNW,8.1,-,N/A,,Clear,340,2012-11-19 16:53:00
12:53 PM,72.0,57.0,59,30.07,10.0,NNW,9.2,-,N/A,,Clear,330,2012-11-19 17:53:00
1:53 PM,73.4,57.2,57,30.03,6.0,NW,8.1,-,N/A,,Haze,310,2012-11-19 18:53:00
2:53 PM,73.0,57.9,59,30.03,10.0,WNW,10.4,-,N/A,,Clear,300,2012-11-19 19:53:00
3:53 PM,71.1,59.0,66,30.03,10.0,WNW,11.5,17.3,N/A,,Partly Cloudy,300,2012-11-19 20:53:00
4:53 PM,66.9,57.9,73,30.05,10.0,NW,9.2,-,N/A,,Scattered Clouds,310,2012-11-19 21:53:00
5:53 PM,64.9,57.0,75,30.05,10.0,NW,8.1,-,N/A,,Mostly Cloudy,320,2012-11-19 22:53:00
6:53 PM,64.9,57.0,75,30.06,10.0,NW,5.8,-,N/A,,Mostly Cloudy,310,2012-11-19 23:53:00
7:53 PM,64.0,57.0,78,30.07,10.0,NNW,6.9,-,N/A,,Overcast,330,2012-11-20 00:53:00
8:53 PM,63.0,57.0,81,30.08,10.0,NNW,5.8,-,N/A,,Overcast,340,2012-11-20 01:53:00
9:53 PM,64.0,57.0,78,30.06,10.0,Variable,5.8,-,N/A,,Overcast,0,2012-11-20 02:53:00
10:42 PM,62.6,57.2,82,30.05,10.0,NNW,6.9,-,N/A,,Overcast,330,2012-11-20 03:42:00
10:53 PM,63.0,57.9,84,30.06,10.0,Variable,6.9,-,N/A,,Overcast,0,2012-11-20 03:53:00
11:53 PM,62.1,57.9,86,30.04,10.0,NW,5.8,-,N/A,,Overcast,310,2012-11-20 04:53:00